| time (UTC) | temp F | wind direction | speed knots | gust knots | rain 1hr in | rain 24hr in | rain mn in | humidity % | barometer mb |
| 20260506200030 | 59 | 131 | 2.6 | 10.4 | 0.00 | 0.10 | 0.10 | 77 | 1014.6 |
| 20260506194528 | 58 | 70 | 2.6 | 7.8 | 0.00 | 0.10 | 0.10 | 79 | 1014.6 |
| 20260506193028 | 57 | 80 | 1.7 | 5.2 | 0.00 | 0.10 | 0.10 | 79 | 1014.9 |
| 20260506191528 | 57 | 89 | 2.6 | 7.0 | 0.00 | 0.10 | 0.10 | 78 | 1015.2 |
| 20260506190031 | 57 | 142 | 2.6 | 7.8 | 0.00 | 0.10 | 0.10 | 79 | 1015.0 |
| 20260506184527 | 57 | 130 | 4.3 | 10.4 | 0.00 | 0.10 | 0.10 | 79 | 1014.7 |
| 20260506183025 | 56 | 139 | 4.3 | 8.7 | 0.00 | 0.10 | 0.10 | 80 | 1013.8 |
| 20260506181528 | 56 | 150 | 7.0 | 13.9 | 0.00 | 0.10 | 0.10 | 81 | 1013.3 |
| 20260506180033 | 55 | 178 | 5.2 | 12.2 | 0.00 | 0.10 | 0.10 | 82 | 1013.3 |
| 20260506174533 | 55 | 136 | 4.3 | 11.3 | 0.00 | 0.10 | 0.10 | 82 | 1014.0 |
| 20260506173028 | 55 | 153 | 4.3 | 13.0 | 0.00 | 0.10 | 0.10 | 82 | 1014.6 |
| 20260506171539 | 55 | 170 | 3.5 | 11.3 | 0.00 | 0.10 | 0.10 | 82 | 1014.8 |
| 20260506170027 | 54 | 161 | 5.2 | 13.0 | 0.00 | 0.10 | 0.10 | 82 | 1014.3 |
| 20260506164528 | 54 | 159 | 5.2 | 13.0 | 0.01 | 0.10 | 0.10 | 82 | 1014.8 |
| 20260506163028 | 55 | 119 | 4.3 | 8.7 | 0.10 | 0.10 | 0.10 | 82 | 1015.0 |
| 20260506161532 | 55 | 0 | 1.7 | 7.8 | 0.10 | 0.10 | 0.10 | 83 | 1015.1 |
| 20260506160032 | 54 | 280 | 1.7 | 10.4 | 0.10 | 0.10 | 0.10 | 82 | 1014.6 |
| 20260506154533 | 54 | 167 | 7.0 | 13.0 | 0.09 | 0.09 | 0.09 | 79 | 1014.0 |
| 20260506153027 | 54 | 0 | 0.9 | 7.8 | 0.00 | 0.00 | 0.00 | 77 | 1016.5 |
| 20260506151533 | 54 | 73 | 2.6 | 8.7 | 0.00 | 0.00 | 0.00 | 77 | 1015.3 |
| 20260506150028 | 54 | 232 | 1.7 | 12.2 | 0.00 | 0.00 | 0.00 | 77 | 1015.0 |
| 20260506144539 | 54 | 96 | 2.6 | 8.7 | 0.00 | 0.00 | 0.00 | 77 | 1015.1 |
| 20260506143028 | 54 | 146 | 5.2 | 9.6 | 0.00 | 0.00 | 0.00 | 77 | 1014.7 |
| 20260506141530 | 54 | 117 | 4.3 | 10.4 | 0.00 | 0.00 | 0.00 | 76 | 1014.4 |
| 20260506140033 | 54 | 146 | 4.3 | 9.6 | 0.00 | 0.00 | 0.00 | 76 | 1014.0 |
| 20260506134528 | 54 | 89 | 3.5 | 13.0 | 0.00 | 0.00 | 0.00 | 76 | 1014.0 |
| 20260506133031 | 54 | 142 | 3.5 | 9.6 | 0.00 | 0.00 | 0.00 | 77 | 1013.8 |
| 20260506131534 | 54 | 120 | 2.6 | 8.7 | 0.00 | 0.00 | 0.00 | 78 | 1013.6 |
| 20260506130030 | 54 | 111 | 6.1 | 12.2 | 0.00 | 0.00 | 0.00 | 77 | 1013.5 |
| 20260506124533 | 54 | 82 | 4.3 | 11.3 | 0.00 | 0.00 | 0.00 | 76 | 1013.3 |
| 20260506123029 | 54 | 167 | 3.5 | 12.2 | 0.00 | 0.00 | 0.00 | 76 | 1013.2 |
| 20260506121527 | 55 | 166 | 5.2 | 12.2 | 0.00 | 0.00 | 0.00 | 75 | 1013.0 |
| 20260506120029 | 55 | 172 | 5.2 | 12.2 | 0.00 | 0.00 | 0.00 | 74 | 1013.1 |
| 20260506114536 | 55 | 171 | 5.2 | 11.3 | 0.00 | 0.00 | 0.00 | 73 | 1012.5 |
| 20260506113028 | 55 | 122 | 2.6 | 12.2 | 0.00 | 0.00 | 0.00 | 73 | 1012.3 |
| 20260506111529 | 55 | 60 | 6.1 | 17.4 | 0.00 | 0.00 | 0.00 | 72 | 1012.0 |
| 20260506110033 | 56 | 135 | 4.3 | 11.3 | 0.00 | 0.00 | 0.00 | 71 | 1011.9 |
| 20260506104526 | 57 | 98 | 4.3 | 9.6 | 0.00 | 0.00 | 0.00 | 71 | 1011.6 |
| 20260506103029 | 57 | 148 | 3.5 | 10.4 | 0.00 | 0.00 | 0.00 | 70 | 1011.1 |
| 20260506101526 | 57 | 142 | 4.3 | 9.6 | 0.00 | 0.00 | 0.00 | 70 | 1010.9 |
| 20260506100029 | 57 | 128 | 4.3 | 11.3 | 0.00 | 0.00 | 0.00 | 70 | 1010.8 |
| 20260506094529 | 57 | 149 | 4.3 | 8.7 | 0.00 | 0.00 | 0.00 | 70 | 1010.7 |
| 20260506093028 | 58 | 158 | 2.6 | 8.7 | 0.00 | 0.00 | 0.00 | 70 | 1010.6 |
| 20260506091526 | 58 | 159 | 3.5 | 7.8 | 0.00 | 0.00 | 0.00 | 70 | 1010.6 |
| 20260506090025 | 58 | 96 | 4.3 | 9.6 | 0.00 | 0.00 | 0.00 | 70 | 1010.2 |
| 20260506084527 | 58 | 155 | 2.6 | 7.8 | 0.00 | 0.00 | 0.00 | 71 | 1010.1 |
| 20260506083027 | 58 | 145 | 2.6 | 7.0 | 0.00 | 0.00 | 0.00 | 71 | 1010.0 |
| 20260506081528 | 58 | 180 | 2.6 | 7.8 | 0.00 | 0.00 | 0.00 | 71 | 1009.6 |
| 20260506073029 | 59 | 165 | 3.5 | 10.4 | 0.00 | 0.00 | 0.00 | 72 | 1009.8 |
| 20260506071528 | 59 | 155 | 6.1 | 10.4 | 0.00 | 0.00 | 0.00 | 72 | 1010.0 |
| 20260506061528 | 61 | 152 | 2.6 | 9.6 | 0.00 | 0.00 | 0.00 | 73 | 1009.6 |
| 20260506044537 | 65 | 165 | 3.5 | 9.6 | 0.00 | 0.00 | 0.00 | 72 | 1009.4 |
| 20260506043027 | 66 | 198 | 4.3 | 12.2 | 0.00 | 0.00 | 0.00 | 71 | 1009.3 |
| 20260506041528 | 67 | 113 | 5.2 | 11.3 | 0.00 | 0.00 | 0.00 | 71 | 1008.6 |
| 20260506040029 | 68 | 124 | 4.3 | 9.6 | 0.00 | 0.00 | 0.00 | 71 | 1008.8 |
| 20260506034528 | 69 | 136 | 2.6 | 12.2 | 0.00 | 0.00 | 0.00 | 71 | 1008.7 |
| 20260506033034 | 70 | 164 | 4.3 | 12.2 | 0.00 | 0.00 | 0.00 | 70 | 1008.4 |
| 20260506031535 | 70 | 140 | 3.5 | 9.6 | 0.00 | 0.00 | 0.00 | 69 | 1008.0 |
| 20260506030050 | 71 | 159 | 4.3 | 11.3 | 0.00 | 0.00 | 0.00 | 69 | 1007.8 |
| 20260506024531 | 73 | 112 | 6.1 | 11.3 | 0.00 | 0.00 | 0.00 | 68 | 1007.4 |
| 20260506023033 | 74 | 136 | 5.2 | 9.6 | 0.00 | 0.00 | 0.00 | 68 | 1007.0 |
| 20260506021528 | 75 | 105 | 1.7 | 6.1 | 0.00 | 0.00 | 0.00 | 67 | 1006.5 |
| 20260506020028 | 75 | 107 | 1.7 | 6.1 | 0.00 | 0.00 | 0.00 | 66 | 1006.5 |
| 20260506014528 | 75 | 118 | 2.6 | 8.7 | 0.00 | 0.00 | 0.00 | 65 | 1006.2 |
| 20260506013031 | 76 | 100 | 1.7 | 9.6 | 0.00 | 0.00 | 0.00 | 64 | 1005.9 |
| 20260506011536 | 76 | 138 | 1.7 | 10.4 | 0.00 | 0.00 | 0.00 | 63 | 1005.9 |
| 20260506010026 | 78 | 149 | 5.2 | 11.3 | 0.00 | 0.00 | 0.00 | 62 | 1005.5 |
| 20260506004543 | 80 | 134 | 3.5 | 7.8 | 0.00 | 0.00 | 0.00 | 61 | 1005.4 |
| 20260506003034 | 81 | 142 | 4.3 | 10.4 | 0.00 | 0.00 | 0.00 | 60 | 1005.0 |
| 20260506001531 | 82 | 54 | 3.5 | 11.3 | 0.00 | 0.00 | 0.00 | 59 | 1005.1 |
| 20260506000026 | 83 | 80 | 0.9 | 4.3 | 0.00 | 0.00 | 0.00 | 63 | 1004.6 |
| 20260505234526 | 83 | 13 | 2.6 | 11.3 | 0.00 | 0.00 | 0.00 | 68 | 1004.5 |
| 20260505233029 | 84 | 329 | 4.3 | 13.0 | 0.00 | 0.00 | 0.00 | 68 | 1004.2 |
| 20260505231529 | 84 | 313 | 4.3 | 10.4 | 0.00 | 0.00 | 0.00 | 67 | 1004.1 |
| 20260505230048 | 84 | 339 | 3.5 | 9.6 | 0.00 | 0.00 | 0.00 | 67 | 1003.8 |
| 20260505224533 | 84 | 315 | 5.2 | 10.4 | 0.00 | 0.00 | 0.00 | 67 | 1004.0 |
| 20260505223027 | 86 | 285 | 4.3 | 10.4 | 0.00 | 0.00 | 0.00 | 64 | 1003.8 |
| 20260505221530 | 86 | 288 | 5.2 | 10.4 | 0.00 | 0.00 | 0.00 | 63 | 1003.7 |
| 20260505220032 | 88 | 292 | 2.6 | 7.8 | 0.00 | 0.00 | 0.00 | 61 | 1003.9 |
| 20260505214534 | 89 | 343 | 2.6 | 12.2 | 0.00 | 0.00 | 0.00 | 53 | 1003.9 |
| 20260505213033 | 88 | 307 | 3.5 | 10.4 | 0.00 | 0.00 | 0.00 | 58 | 1003.9 |
| 20260505211528 | 88 | 327 | 3.5 | 10.4 | 0.00 | 0.00 | 0.00 | 58 | 1004.2 |
| 20260505210029 | 88 | 355 | 5.2 | 11.3 | 0.00 | 0.00 | 0.00 | 57 | 1004.2 |
| 20260505204533 | 88 | 341 | 4.3 | 12.2 | 0.00 | 0.00 | 0.00 | 59 | 1004.5 |
| 20260505203034 | 86 | 335 | 5.2 | 11.3 | 0.00 | 0.00 | 0.00 | 61 | 1004.6 |
| 20260505201534 | 87 | 326 | 5.2 | 13.0 | 0.00 | 0.00 | 0.00 | 61 | 1004.7 |